STARLINK-5423, 55670

Orbit data source: Space-Track

STARLINK-5423, 55670 is a payload satellite owned by SpaceX/Seattle (US) in LEO that was launched on Fri, 17 Feb 2023 UTC via an FALCON 9 launch vehicle from the Air Force Western Test Range (AFWTR). Payload-class satellites include a variety of spacecraft equipped with specific instruments for various scientific and technological missions. These include communications satellites like Starlink; space stations such as the ISS; scientific satellites like the Hubble; Earth observation satellites from companies like Planet Labs, Umbra, and HawkEye 360; GPS; miniature CubeSats for education and research; and military/defense satellites.

Loading next visibility...
Identifier
55670, 2023-021AU
Orbit
LEO
Country
Flag of USUS
Related business
Manufacturer
SpaceX/Seattle
Mission
Operational Commercial Communications
Bus & Motor
STARLINK, Unknown motor
Mass
305 kg wet, ~290 kg dry
Launch date (UTC)
2023-02-17 (3 years ago)
Launch vehicle
FALCON 9
Launch site
Air Force Western Test Range (AFWTR)
Object type
Payload
Rocket body
Debris
Shape & HBR
Box + 1 Pan, 10.1 m
Radar Cross Section
13.562 m², Large (>1 m²)

Expand to show TLE details & history
Last TLE update: 2 days ago

TLE from 2 days ago
0 STARLINK-5423
1 55670U 23021AU  26171.41640263  .00000119  00000-0  17747-4 0  9995
2 55670  69.9989 265.3747 0003300 270.4163  89.6618 14.98329370184678
Epoch: 2026-06-20T09:59Z
TLE epoch observation values (Epoch: 2026-06-20T09:59:37.187Z)
Latitude
-0°
Longitude
-153.16158°
Altitude
574.469 km
Speed
7.574 km/s
True Right ascension
17h 41m 29s
True Declination
0° 00' 00"
Sunlit
Object was in full shadow at epoch
Visualization orbit readout
Latitude
Unknown
Longitude
Unknown
Altitude
Unknown
Speed
Unknown
Apparent Right ascension
Unknown
Apparent Declination
Unknown
Sunlit
N/A
Visualization observer readout
Local Sidereal Time
21:44:03
Azimuth
Unknown
Elevation
Unknown
Doppler factor
Unknown
Orbital elements
Apogee altitude
572.299 km
Perigee altitude
567.713 km
Semi-major axis
6,948.143 km
Eccentricity
0.00033
Inclination
69.9989°
RAAN
265.3747°
Arg. of periapsis
270.4163°
True anomaly
89.69961°
Mean anomaly
89.6618°
Eccentric anomaly
89.68071°
Mean motion
3.74749 °/min
Orbital period
96.06 mins
BSTAR
0.000017747
Loading maneuver chart data...
Computing Atmospheric mass density...

Documentation

Showing up to 5 results
|